Location: Arcones
(41.1182°N, 3.7238°W)
Time: 08:16:50
(UTC+00:00)

IRAS Rocket - Pass Details

Date: 14 March 2026
Orbit: 845 x 876 km, 100.1° (Epoch: 18 April)

Event Time Altitude Azimuth Distance (km) Brightness Sun altitude
Rises 18:40:29 0° 130° (SE) 3,456 6.9 -4.6°
Reaches altitude 10° 18:43:11 10° 119° (ESE) 2,520 6.1 -5.1°
Maximum altitude 18:47:48 27° 63° (ENE) 1,600 5.2 -6.0°
Drops below altitude 10° 18:52:25 10° 7° (N) 2,519 6.6 -6.9°
Sets 18:55:06 0° 356° (N) 3,456 7.5 -7.4°
